This demonstration page uses our WeatherBlox Daily Observations layout. Learn more.

Left ArrowRight Arrow

34.74481, -87.66753

Hourly Observations for May 4, 2019

Temp ( °F °C ) Dew Point ( °F °C ) Humidity (%) Winds ( mph kmh ) Pressure ( in mb ) Visibility ( mi km ) Precip ( " mm )
12:53 am 00:53 undefined 68 20 65 18.3 90 90 Calm 29.93 1014 10 16 0.00 0.00
1:53 am 01:53 Mostly Clear with Light Rain 67 19.4 65 18.3 93 93 Calm 29.91 1013 10 16 0.00 0.03
2:53 am 02:53 undefined 67 19.4 65 18.3 93 93 NNW 3 6 29.89 1012 10 16 0.02 0.51
3:53 am 03:53 undefined 67 19.4 65 18.3 93 93 Calm 29.88 1012 10 16 0.00 0.00
4:53 am 04:53 undefined 67 19.4 65 18.3 93 93 Calm 29.87 1012 10 16 0.00 0.00
5:53 am 05:53 undefined 67 19.4 65 18.3 93 93 Calm 29.88 1012 10 16 0.00 0.00
6:53 am 06:53 Partly Cloudy with Heavy Rain 67 19.4 65 18.3 93 93 W 3 6 29.91 1013 4 6 0.09 2.29
7:53 am 07:53 Partly Cloudy with Rain 67 19.4 66 18.9 97 97 Calm 29.91 1013 5 8 0.12 3.05
8:53 am 08:53 Partly Cloudy with Rain 68 20 65 18.3 90 90 E 3 6 29.91 1013 9 14 0.07 1.78
9:53 am 09:53 undefined 70 21.1 65 18.3 84 84 SSE 3 6 29.88 1012 10 16 0.03 0.76
10:53 am 10:53 undefined 72 22.2 66 18.9 82 82 VRB 3 6 29.87 1012 10 16 0.00 0.00
11:53 am 11:53 undefined 72 22.2 65 18.3 79 79 ESE 5 7 29.86 1011 10 16 0.00 0.00
12:53 pm 12:53 undefined 75 23.9 65 18.3 71 71 SSE 7 11 29.85 1011 10 16 0.00 0.00
1:53 pm 13:53 undefined 75 23.9 65 18.3 71 71 S 6 9 29.84 1010 10 16 0.00 0.00
2:53 pm 14:53 undefined 75 23.9 65 18.3 71 71 SSW 5 7 29.81 1009 10 16 0.00 0.00
3:53 pm 15:53 undefined 74 23.3 66 18.9 76 76 N 3 6 29.77 1008 10 16 0.00 0.00
4:53 pm 16:53 Partly Cloudy with Heavy Rain 70 21.1 67 19.4 90 90 NW 6 9 29.77 1008 4 6 0.12 3.05
4:58 pm 16:58 Partly Cloudy with Heavy Rain 70 21.1 67 19.4 90 90 W 8 13 29.79 1009 2 3 0.15 3.81
5:19 pm 17:19 Partly Cloudy with Heavy Rain 68 20 66 18.9 93 93 N 5 7 29.78 1008 3 5 0.68 17.27
5:35 pm 17:35 Partly Cloudy with Nearby Thunderstorms 68 20 66 18.9 93 93 N 5 7 29.77 1008 10 16 0.70 17.78
5:50 pm 17:50 Partly Cloudy with Rain 68 20 64 18 88 88 NNE 7 11 29.77 1008 10 16 0.73 18.54
5:53 pm 17:53 Partly Cloudy with Rain 68 20 65 18.3 90 90 NNE 5 7 29.76 1008 10 16 0.74 18.80
6:53 pm 18:53 Partly Cloudy with Light Rain 68 20 66 18.9 93 93 VRB 5 7 29.75 1008 10 16 0.08 2.03
7:53 pm 19:53 Mostly Clear with Rain 67 19.4 63 17.2 87 87 NNE 6 9 29.76 1008 10 16 0.17 4.32
8:53 pm 20:53 Mostly Clear with Light Rain 66 18.9 63 17.2 90 90 NE 7 11 29.77 1008 10 16 0.11 2.79
9:53 pm 21:53 Mostly Clear with Light Rain 65 18.3 62 16.7 90 90 NNW 5 7 29.77 1008 10 16 0.03 0.76
10:53 pm 22:53 Mostly Clear with Light Rain 65 18.3 63 17.2 93 93 N 7 11 29.77 1008 10 16 0.02 0.51
11:53 pm 23:53 undefined 65 18.3 62 16.7 90 90 VRB 5 7 29.78 1008 10 16 0.00 0.03

Powered by AerisWeather